[[{"header":{"parameterUnit":"m.s-1","parameterCategory":1,"la1":30.2991,"la2":30.254,"lo1":-89.0895,"lo2":-89.0444,"dy":0.0017,"dx":0.0017,"nx":28,"ny":28,"refTime":"2023-08-13T03:00:00:Z","depth":0,"parameterNumber":2,"parameterNumberName":"U-component_of_WINDS"},"data":[0,0,0,0,0,0,0,0,0,0,0,0,0,0,0,0,0,0,0,0,0,0,0,0,0,0,0,0,0,0,0,0,0,0,0,0,0,0,0,0,0,0,0,0,0,0,0,0,0,0,0,0,0,0,0,0,0,0,2.2302,2.2303,0,2.2329,2.2329,2.233,2.2267,2.2265,2.2263,2.2261,2.229,2.2292,2.2295,0,0,0,0,0,0,0,0,0,0,0,0,0,2.2198,2.22,2.2302,2.2303,2.2303,2.2329,2.2329,2.233,2.2267,2.2265,2.2262,2.226,2.2289,2.2292,2.2295,0,0,0,0,0,0,0,0,0,0,0,0,0,2.2236,2.2201,2.2302,2.2275,2.2273,2.2329,2.2329,2.233,2.2268,2.2265,2.2262,2.2259,2.2288,2.2291,2.2295,2.2379,0,0,2.2307,2.2309,0,0,0,0,0,0,0,0,2.2234,2.224,2.2279,2.2277,2.2275,2.2292,2.2303,2.2346,2.2269,2.227,2.2261,2.2258,2.2293,2.2296,2.2308,2.2381,2.2382,2.2308,2.231,2.2312,2.2313,0,0,0,0,0,0,0,2.2231,2.2238,2.2313,2.2279,2.2277,2.2262,2.2264,2.2311,2.2298,2.2269,2.2265,2.2269,2.2291,2.2304,2.2308,2.2382,2.2308,2.2311,2.2313,2.2315,2.2523,2.2526,0,0,0,0,0,0,2.2232,2.2237,2.2312,2.2314,2.2247,2.2266,2.2268,2.2289,2.2297,2.2295,2.2271,2.2266,2.2299,2.2303,2.2309,2.2405,2.2312,2.2315,2.2318,2.252,2.2524,2.2528,0,0,0,0,0,0,2.223,2.224,2.2311,2.2274,2.2282,2.2271,2.2295,2.2291,2.2304,2.2298,2.2296,2.2287,2.2297,2.2303,2.2362,2.2405,2.2317,2.2321,2.2517,2.2521,2.2526,2.2601,0,0,0,0,0,0,2.2227,2.2239,2.2271,2.2275,2.2284,2.2364,2.2298,2.2294,2.2311,2.2304,2.2312,2.2311,2.2295,2.2356,2.2366,2.2409,2.2324,2.2512,2.2519,2.2524,2.2594,2.2607,2.2619,0,0,0,0,0,2.2224,2.2291,2.2273,2.2282,2.2323,2.2366,2.2371,2.2351,2.2315,2.2346,2.2342,2.2311,2.24,2.2363,2.2373,2.2418,2.251,2.2517,2.2524,2.2589,2.2605,2.2618,0,0,0,0,0,0,2.2293,2.2291,2.2271,2.2342,2.2354,2.2355,2.2394,2.2369,2.2393,2.2385,2.2359,2.2362,2.2425,2.2428,2.2387,2.2499,2.2448,2.2458,2.2494,2.2509,2.2522,2.2518,2.2327,0,0,0,0,0,2.2316,2.2351,2.2348,2.2411,2.2419,2.2406,2.2424,2.2407,2.2419,2.2424,2.2425,2.2439,2.2469,2.249,2.2518,2.2595,2.2595,2.2631,2.2644,2.2654,2.2662,2.27,2.2716,2.2551,2.2551,2.2551,0,0,2.2365,2.2369,2.2392,2.2425,2.2433,2.2469,2.2411,2.2452,2.2478,2.2431,2.2485,2.2486,2.25,2.2567,2.2597,2.2572,2.2707,2.2663,2.2671,2.2673,2.2709,2.2725,2.2739,2.2556,2.2555,2.2554,0,0,2.2471,2.2479,2.2531,2.254,2.2552,2.2543,2.2556,2.2561,2.256,2.2614,2.2579,2.261,2.2665,2.2674,2.2687,2.2798,2.2768,2.2808,2.2871,2.2909,2.2922,2.2933,2.297,2.2984,2.2816,2.2816,2.2816,0,2.253,2.2583,2.2561,2.2604,2.2619,2.2577,2.2629,2.264,2.2661,2.2672,2.2644,2.2709,2.2716,2.2784,2.2811,2.2823,2.2836,2.2805,2.2922,2.2933,2.2943,2.2978,2.2992,2.2821,2.282,2.282,2.2819,0,2.2653,2.2691,2.2731,2.2752,2.2772,2.282,2.2804,2.2827,2.2809,2.2803,2.2858,2.2865,2.2892,2.2908,2.2891,2.2974,2.2957,2.2926,2.2874,2.2964,2.2996,2.3009,2.2827,2.2826,2.2824,2.2823,0,0,2.2802,2.281,2.2825,2.2833,2.2844,2.2873,2.2919,2.2945,2.2964,2.2981,2.3017,2.3064,2.3035,2.3049,2.3033,2.3067,2.3151,2.3031,2.3031,2.3051,2.324,2.3261,2.3277,2.3133,2.3136,2.3138,2.3238,0,2.2905,2.2982,2.2964,2.304,2.3073,2.3035,2.3075,2.3086,2.3082,2.311,2.3105,2.3138,2.3098,2.3106,2.3138,2.3134,2.3188,2.3127,2.3165,2.3167,2.316,2.3295,2.3318,2.3412,2.3251,2.3253,2.3255,0,2.3035,2.3055,2.3135,2.3139,2.3153,2.3189,2.3211,2.3238,2.325,2.3245,2.3261,2.3238,2.3282,2.3232,2.3293,2.3251,2.3266,2.3267,2.327,2.3271,2.3214,2.3296,2.3441,2.3454,2.3275,2.3273,2.3272,0,2.3132,2.318,2.3233,2.3242,2.3249,2.3275,2.3279,2.3288,2.3305,2.3325,2.3335,2.3361,2.3374,2.3394,2.3379,2.3344,2.3441,2.339,2.3437,2.3437,2.3456,2.3455,2.3603,2.3471,2.3471,2.3471,2.347,0,2.3247,2.3296,2.3276,2.3309,2.3363,2.3342,2.3396,2.3396,2.3404,2.3436,2.3406,2.3436,2.3415,2.3444,2.3432,2.3483,2.349,2.3486,2.3481,2.3487,2.3487,2.3494,2.3486,2.3474,2.3474,2.3473,2.3472,0,2.3363,2.3352,2.3407,2.3409,2.3411,2.3451,2.3453,2.3483,2.3477,2.3517,2.3526,2.3516,2.3548,2.3536,2.357,2.3562,2.3626,2.3615,2.3621,2.3617,2.3663,2.3658,2.3819,2.3838,2.3697,2.3698,2.3699,0,2.3435,2.3472,2.3479,2.3497,2.3504,2.3535,2.3552,2.3533,2.3552,2.3568,2.3595,2.3625,2.3646,2.3699,2.3695,2.3721,2.3709,2.3763,2.3712,2.3716,2.3706,2.3703,2.3705,2.3773,2.3774,2.3776,2.3777,0,2.3564,2.3557,2.3582,2.3606,2.3627,2.3645,2.366,2.3677,2.3659,2.3681,2.3713,2.373,2.3765,2.3794,2.3817,2.3821,2.3795,2.3793,2.3805,2.3809,2.381,2.3807,2.3646,2.3789,2.3788,2.3787,2.3786,2.3786,2.3658,2.3689,2.3698,2.3727,2.3736,2.3751,2.3779,2.3777,2.3803,2.3829,2.3817,2.3853,2.3864,2.3891,2.3899,2.3927,2.3906,2.3923,2.3927,2.3931,2.3935,2.3808,2.3932,2.3932,2.3931,2.3931,2.3931,0,2.3783,2.3787,2.3814,2.3836,2.3859,2.3834,2.385,2.387,2.3902,2.3914,2.3937,2.3973,2.4001,2.3999,2.4025,2.4047,2.4036,2.4055,2.4051,2.4052,2.3955,2.3941,2.4063,2.4063,2.4063,2.4063,2.4063,2.4063,2.385,2.39,2.3894,2.3948,2.3951,2.3986,2.3997,2.401,2.4019,2.4061,2.4084,2.4083,2.4089,2.4115,2.4139,2.4138,2.4148,2.417,2.4164,2.4072,2.4059,2.4047,2.4033,2.4173,2.4173,2.4258,2.4259,2.426]},{"header":{"parameterUnit":"m.s-1","parameterCategory":1,"la1":30.2991,"la2":30.254,"lo1":-89.0895,"lo2":-89.0444,"dy":0.0017,"dx":0.0017,"nx":28,"ny":28,"refTime":"2023-08-13T03:00:00:Z","depth":0,"parameterNumber":3,"parameterNumberName":"V-component_of_WINDS"},"data":[0,0,0,0,0,0,0,0,0,0,0,0,0,0,0,0,0,0,0,0,0,0,0,0,0,0,0,0,0,0,0,0,0,0,0,0,0,0,0,0,0,0,0,0,0,0,0,0,0,0,0,0,0,0,0,0,0,0,5.3689,5.3689,0,5.3654,5.3653,5.3653,5.3587,5.3586,5.3584,5.3583,5.3545,5.3545,5.3545,0,0,0,0,0,0,0,0,0,0,0,0,0,5.3696,5.3696,5.3689,5.3689,5.3688,5.3654,5.3653,5.3653,5.3587,5.3585,5.3584,5.3583,5.3545,5.3545,5.3545,0,0,0,0,0,0,0,0,0,0,0,0,0,5.368,5.3696,5.3689,5.3651,5.3648,5.3654,5.3653,5.3652,5.3587,5.3585,5.3584,5.3582,5.3545,5.3545,5.3545,5.3585,0,0,5.3546,5.3546,0,0,0,0,0,0,0,0,5.3681,5.368,5.3657,5.3654,5.365,5.3623,5.3642,5.363,5.3588,5.361,5.3583,5.3581,5.3572,5.357,5.3568,5.3583,5.3581,5.3546,5.3546,5.3546,5.3546,0,0,0,0,0,0,0,5.3682,5.3681,5.3675,5.3657,5.3652,5.3635,5.363,5.3639,5.3602,5.3608,5.3603,5.36,5.357,5.3567,5.3566,5.3581,5.3546,5.3546,5.3546,5.3547,5.3623,5.3624,0,0,0,0,0,0,5.3689,5.3682,5.3676,5.3674,5.3661,5.3636,5.3631,5.3633,5.3602,5.3595,5.3602,5.3597,5.3568,5.3566,5.3565,5.3606,5.3546,5.3547,5.3547,5.3621,5.3623,5.3625,0,0,0,0,0,0,5.369,5.3689,5.3677,5.3677,5.3674,5.3638,5.3641,5.3634,5.3631,5.3597,5.359,5.3606,5.3566,5.3564,5.3579,5.3604,5.3547,5.3547,5.3619,5.3621,5.3624,5.3691,0,0,0,0,0,0,5.369,5.369,5.3706,5.3678,5.3674,5.3694,5.3642,5.3634,5.3632,5.3626,5.36,5.3593,5.3565,5.3579,5.358,5.3603,5.3547,5.3616,5.362,5.3623,5.3686,5.3695,5.3703,0,0,0,0,0,5.3691,5.3726,5.3707,5.3706,5.3693,5.3696,5.3694,5.3661,5.3634,5.3649,5.3626,5.3594,5.3601,5.3582,5.3581,5.3605,5.3614,5.3619,5.3623,5.3682,5.3693,5.3703,0,0,0,0,0,0,5.3758,5.3722,5.37,5.3728,5.3715,5.3685,5.3702,5.3674,5.3669,5.3663,5.3621,5.3616,5.3636,5.3622,5.3601,5.3639,5.3603,5.3607,5.3648,5.3658,5.3667,5.3669,5.3547,0,0,0,0,0,5.3776,5.3782,5.375,5.3778,5.3773,5.3739,5.3739,5.3714,5.3699,5.3694,5.3672,5.3659,5.3657,5.3657,5.3654,5.3684,5.3676,5.37,5.3709,5.3716,5.3719,5.373,5.374,5.3639,5.3639,5.3639,0,0,5.3814,5.3795,5.3801,5.3791,5.3778,5.3784,5.3735,5.3744,5.3746,5.3695,5.3707,5.3691,5.3673,5.3694,5.3703,5.3683,5.3746,5.3721,5.3727,5.3727,5.3736,5.3745,5.3754,5.3642,5.3641,5.3641,0,0,5.3884,5.3872,5.3891,5.388,5.3861,5.3838,5.3843,5.3816,5.3803,5.3815,5.3775,5.3778,5.3778,5.3765,5.3758,5.3822,5.379,5.3822,5.3866,5.3877,5.3885,5.3892,5.3912,5.392,5.3826,5.3826,5.3826,0,5.3932,5.394,5.3905,5.3915,5.3911,5.3864,5.3882,5.3873,5.3854,5.3851,5.383,5.3826,5.3811,5.3827,5.3842,5.384,5.3842,5.3824,5.3887,5.3894,5.3899,5.3918,5.3925,5.383,5.3829,5.3829,5.3829,0,5.3999,5.4005,5.4023,5.4006,5.4003,5.4018,5.3983,5.3985,5.396,5.3938,5.3949,5.3929,5.392,5.3922,5.3899,5.3934,5.3922,5.3895,5.3857,5.3913,5.3929,5.3936,5.3835,5.3834,5.3833,5.3832,0,0,5.4111,5.4073,5.408,5.407,5.4045,5.4048,5.406,5.4051,5.4051,5.404,5.4046,5.4046,5.4019,5.4012,5.3986,5.3997,5.4044,5.3967,5.3966,5.398,5.4078,5.4098,5.4106,5.4024,5.4025,5.4026,5.4079,0,5.4174,5.4191,5.4159,5.4184,5.4187,5.4142,5.4151,5.4136,5.4116,5.4114,5.4092,5.4091,5.4058,5.4052,5.4061,5.4037,5.4063,5.4033,5.4027,5.4027,5.4031,5.4115,5.4136,5.4187,5.4085,5.4086,5.4087,0,5.4249,5.4241,5.4266,5.4237,5.4237,5.4246,5.4234,5.4234,5.4215,5.4199,5.419,5.4159,5.4166,5.4131,5.4138,5.4118,5.4113,5.4101,5.4102,5.4099,5.406,5.4112,5.4203,5.421,5.4097,5.4097,5.4096,0,5.4324,5.4319,5.4333,5.4326,5.4294,5.4301,5.4288,5.4267,5.4262,5.4251,5.4247,5.4238,5.4232,5.4224,5.419,5.4168,5.42,5.4162,5.4185,5.4186,5.4192,5.4192,5.4282,5.4194,5.4194,5.4194,5.4194,0,5.4396,5.4413,5.4366,5.4374,5.439,5.4352,5.4368,5.435,5.4332,5.4334,5.4295,5.4297,5.4254,5.4251,5.4225,5.4233,5.4231,5.4217,5.421,5.4219,5.4221,5.4215,5.4209,5.4196,5.4195,5.4195,5.4194,0,5.4482,5.4452,5.4463,5.4431,5.4423,5.4436,5.4408,5.4413,5.439,5.4393,5.4392,5.4355,5.435,5.4316,5.4303,5.4285,5.4302,5.4288,5.4308,5.4303,5.4326,5.4324,5.4413,5.4422,5.4331,5.4332,5.4333,0,5.4529,5.4541,5.451,5.4508,5.4497,5.4496,5.4491,5.4454,5.445,5.4428,5.4435,5.4426,5.4417,5.441,5.4381,5.437,5.4354,5.4387,5.4352,5.4361,5.4352,5.435,5.435,5.4393,5.4395,5.4396,5.4396,0,5.4615,5.4598,5.4594,5.4583,5.4578,5.4568,5.4555,5.4556,5.4514,5.4511,5.4505,5.4498,5.4484,5.4475,5.4459,5.4443,5.4412,5.4408,5.4412,5.4421,5.4431,5.4423,5.4325,5.4405,5.4404,5.4404,5.4403,5.4403,5.468,5.4687,5.4666,5.4661,5.4647,5.4635,5.4638,5.4615,5.4609,5.4595,5.4573,5.457,5.4547,5.4522,5.4509,5.4504,5.4486,5.4493,5.4495,5.4496,5.45,5.4433,5.4501,5.4501,5.4501,5.45,5.45,0,5.4761,5.4745,5.4741,5.4724,5.4719,5.4691,5.4675,5.4672,5.467,5.4653,5.4644,5.4636,5.4626,5.4596,5.4583,5.4585,5.457,5.4582,5.4581,5.4577,5.4518,5.4514,5.4594,5.4594,5.4594,5.4594,5.4594,5.4594,5.4802,5.4811,5.4793,5.4794,5.4777,5.4773,5.4766,5.4754,5.474,5.4732,5.4724,5.4705,5.4682,5.4666,5.4655,5.4647,5.4642,5.4659,5.4646,5.4591,5.4582,5.4573,5.4569,5.4659,5.4659,5.4704,5.4705,5.4705]}]]